Wetbulb
80.44 77.42 76.79 77.10 75.73 76.15 76.27 77.16 80.92 79.69 79.73 79.26 79.11 78.60 78.72 76.98 76.17 78.10 77.10 77.93 78.17 76.70
79.61 79.60 78.46 79.47 78.14 76.27 78.14 77.05 79.47 79.41 80.29 79.58 79.91 79.85 79.22 77.17 76.76 77.00 76.87 76.16 77.16 76.84
78.62 79.43 79.08 78.29 78.20 78.04 77.85 79.51 79.75 79.97 80.09 79.70 79.97 80.21 80.80 78.92 79.36 77.83 76.09 75.04 76.86 76.77
78.70 78.82 78.87 77.75 78.16 78.75 78.22 79.65 80.77 81.12 81.01 80.27 79.70 80.51 81.18 80.51 80.33 79.13 79.20 78.17 77.26 77.91
78.53 78.91 77.99 77.99 77.78 79.92 79.52 79.66 82.29 81.99 81.41 80.41 79.68 81.09 80.80 79.21 79.56 78.96 78.84 78.41 78.87 77.68
77.62 77.56 77.44 77.55 77.98 78.67 80.36 80.93 78.72 81.25 81.94 82.08 80.75 81.54 81.26 81.55 81.17 80.01 80.19 79.84 79.64 79.09
76.80 77.52 77.24 78.28 79.61 78.11 80.74 80.67 80.42 80.66 81.87 81.54 80.67 80.45 80.43 80.62 80.97 80.55 80.26 80.47 80.64 80.34
78.08 79.03 79.48 80.97 81.21 80.00 80.42 80.75 81.08 81.91 82.07 81.87 79.86 79.13 80.57 81.13 80.59 80.34 79.21 80.32 81.09 80.46
78.68 78.83 78.75 79.64 79.38 80.20 80.11 80.54 81.49 81.10 79.47 78.70 79.29 73.43 70.70 74.74 79.72 80.15 80.24 79.66 80.37 80.43
78.71 78.68 78.90 79.19 79.42 77.38 78.38 75.92 77.63 77.07 75.44 77.93 79.08 69.07 68.72 70.44 75.97 78.92 79.27 79.32 78.98 77.68
77.06 76.36 76.80 76.04 75.20 74.98 72.55 74.73 74.84 73.15 72.49 74.94 77.89 68.18 67.66 69.46 75.74 75.67 76.00 76.81 77.22 77.26
76.46 76.32 75.76 74.84 75.47 75.24 75.41 75.12 75.52 76.67 76.95 77.15 77.49 67.50 64.71 68.42 73.27 73.43 75.13 75.58 76.27 76.72
75.66 75.25 75.15 75.41 75.58 76.00 75.89 75.38 74.99 75.13 75.63 72.37 75.01 67.39 63.26 67.11 71.45 71.61 72.29 76.32 76.24 69.16
75.54 75.11 75.30 75.33 75.89 75.36 74.89 74.94 74.99 74.97 76.58 76.36 74.70 73.73 62.97 62.84 70.58 70.69 71.33 72.14 72.67 73.63
MSLP
1014.61 1014.75 1015.04 1015.00 1014.86 1014.45 1014.83 1014.67 1014.88 1015.49 1015.78 1015.85 1016.18 1016.40 1016.39 1016.45 1016.57 1016.32 1016.58 1016.70 1016.64 1016.15
1014.27 1014.53 1014.33 1014.49 1014.89 1014.74 1014.66 1014.56 1014.46 1015.00 1015.59 1015.81 1016.06 1016.15 1016.39 1016.16 1016.18 1016.37 1016.42 1016.28 1016.49 1016.62
1013.77 1014.24 1014.34 1014.40 1014.65 1014.39 1014.24 1014.57 1014.91 1015.09 1015.31 1015.68 1015.80 1015.96 1016.22 1015.69 1015.72 1016.00 1016.03 1015.72 1015.74 1016.12
1013.02 1013.46 1013.89 1013.99 1014.22 1014.34 1014.28 1014.36 1014.65 1014.91 1015.02 1015.22 1015.30 1015.42 1015.70 1015.79 1015.67 1015.58 1015.64 1015.67 1015.60 1015.71
1012.31 1012.72 1012.90 1013.29 1013.52 1013.79 1013.96 1014.06 1014.19 1014.41 1014.54 1014.69 1014.75 1014.77 1014.89 1015.16 1014.76 1015.21 1015.10 1015.10 1015.18 1015.30
1011.51 1011.81 1012.02 1012.09 1012.60 1012.96 1013.28 1013.46 1013.53 1013.82 1013.91 1013.86 1013.90 1014.03 1014.21 1014.38 1014.35 1014.33 1014.29 1014.36 1014.43 1014.52
1011.03 1011.15 1011.35 1011.51 1011.83 1012.04 1012.58 1013.08 1013.25 1013.27 1013.29 1013.53 1013.67 1013.65 1013.64 1013.64 1013.80 1013.82 1013.63 1013.59 1013.63 1013.67
1011.05 1011.03 1011.23 1011.45 1011.50 1011.85 1012.18 1012.70 1013.25 1013.39 1013.41 1013.43 1013.23 1013.10 1013.09 1013.06 1013.07 1013.17 1013.16 1013.00 1013.04 1013.10
1011.51 1011.63 1011.67 1011.78 1012.04 1012.29 1012.63 1012.84 1013.11 1013.09 1013.18 1012.89 1013.00 1012.40 1012.60 1013.17 1013.17 1013.04 1012.87 1012.75 1012.39 1012.63
1011.73 1011.88 1012.13 1012.23 1012.43 1012.86 1012.83 1013.46 1013.21 1013.41 1013.50 1013.99 1014.13 1013.72 1013.48 1013.07 1012.94 1012.84 1012.47 1012.48 1012.51 1012.58
1012.38 1012.64 1012.89 1013.10 1013.25 1013.40 1013.46 1013.33 1013.61 1013.41 1013.23 1013.41 1013.92 1013.67 1013.72 1013.57 1013.27 1012.83 1012.66 1012.37 1012.27 1012.39
1012.34 1012.56 1012.88 1013.08 1013.10 1013.19 1013.27 1013.34 1013.29 1012.87 1013.01 1013.24 1013.47 1013.83 1013.80 1013.62 1013.13 1012.62 1012.15 1011.83 1011.88 1011.86
1012.69 1012.64 1012.63 1012.75 1012.85 1013.01 1013.04 1012.90 1012.69 1012.64 1012.95 1013.27 1013.40 1013.53 1013.69 1013.81 1013.18 1012.05 1011.25 1010.99 1011.11 1011.62
1012.77 1012.73 1012.82 1012.94 1012.97 1012.91 1012.88 1012.91 1012.76 1012.58 1012.51 1012.36 1012.25 1012.45 1013.06 1013.34 1013.17 1012.22 1011.30 1010.87 1010.82 1011.26
Wind_Speed
10 8 8 8 8 5 3 6 11 6 6 4 6 5 5 6 6 8 6 7 6 7
10 11 8 7 8 7 5 4 7 5 6 5 5 6 6 8 5 4 6 7 7 7
12 11 11 8 8 7 6 6 3 4 7 8 8 8 7 7 8 6 6 7 6 5
12 12 12 11 11 10 9 7 8 7 8 9 9 9 8 9 6 9 8 8 7 7
12 12 13 13 13 11 10 10 9 9 9 9 10 9 10 12 10 11 10 10 10 10
14 14 14 14 13 13 12 11 12 12 11 11 12 11 12 11 10 11 11 11 11 11
12 13 13 12 11 13 12 11 12 12 11 12 12 12 13 12 12 12 12 13 13 12
7 8 8 7 7 9 9 9 9 9 10 11 13 12 14 12 12 12 12 12 12 13
5 5 6 6 8 7 7 8 7 9 11 12 12 9 6 8 11 11 12 13 11 12
1 2 1 2 1 6 4 4 2 4 4 12 14 10 7 4 5 10 9 11 11 10
4 5 3 3 0 4 2 4 5 4 2 8 13 7 5 6 9 10 11 12 12 12
3 4 4 3 3 4 4 6 6 6 7 9 9 5 6 4 9 12 12 11 12 13
4 3 2 2 1 2 4 6 6 6 7 9 9 9 8 5 8 10 9 8 6 3
3 3 3 2 2 3 4 5 6 7 7 9 10 5 12 10 5 9 9 7 6 3
Wind_Direction
206 212 219 206 256 257 116 261 134 154 189 201 177 214 199 222 233 193 214 239 261 304
203 226 218 235 198 240 266 249 151 182 184 199 204 212 204 251 197 260 213 240 226 251
207 213 227 212 225 245 252 220 255 178 198 198 203 205 220 249 197 219 245 233 216 239
202 207 211 214 211 217 223 219 213 225 217 213 217 213 204 254 283 202 225 249 266 216
205 210 208 215 210 210 216 219 212 218 219 228 230 223 217 227 237 215 231 235 238 238
199 209 219 208 215 205 211 217 227 210 223 222 224 224 222 228 232 232 227 227 230 232
218 218 219 219 217 216 204 216 226 233 225 224 234 236 234 228 226 236 234 234 232 233
229 247 222 257 230 222 238 217 241 247 245 242 237 238 229 232 235 232 239 246 246 238
215 242 247 235 242 234 240 253 281 275 278 283 271 254 252 285 259 250 245 253 247 260
136 179 141 69 352 36 65 351 348 309 359 313 298 335 350 14 274 272 267 264 265 267
90 96 76 79 160 308 5 297 277 285 235 286 274 281 260 265 273 268 273 268 265 276
100 149 171 201 233 234 229 262 237 279 265 268 280 212 263 265 269 261 258 255 255 261
55 56 18 358 326 291 284 276 282 295 282 268 263 209 190 223 279 277 284 284 246 169
65 61 37 17 316 319 297 314 286 277 272 260 251 196 178 198 268 287 292 281 275 279